< Typhoon 202206 2022 Season Typhoon 202208 >
Typhoon 202207 (MULAN)
General InformationTrack Information on Google MapsDetailed Wind InformationForecast History on Google MapsAccess Analytics MapList of All Images || NewsDisaster Info.JMA Disaster Info. XMLWeblogTrackbackTyphoon FrontTwiphoonTyphoon Now!Typhoon ImaginationResourceGoogle EarthGE AnimationAtom FeedGeoJSON
Detalied Best Track (Time Zone = UTC)
Year Month Day Hour Lat. Long. Pressure (hPa) Wind (kt) Class Image Chart
2022 8 8 06 15.0 111.1 1000 30 2 Image Chart
2022 8 8 09 14.6 111.1 1000 30 2 Image Chart
2022 8 8 12 14.6 111.1 1000 30 2 Image Chart
2022 8 8 15 14.7 111.2 1000 30 2 Image Chart
2022 8 8 18 15.5 111.9 998 30 2 Image Chart
2022 8 8 21 15.7 112.2 998 30 2 Image Chart
2022 8 9 00 15.9 112.1 998 30 2 Image Chart
2022 8 9 03 16.0 112.2 998 30 2 Image Chart
2022 8 9 06 17.4 113.5 996 35 3 Image Chart
2022 8 9 09 17.9 112.8 996 35 3 Image Chart
2022 8 9 12 18.2 112.6 996 35 3 Image Chart
2022 8 9 15 18.6 112.5 996 35 3 Image Chart
2022 8 9 18 18.8 112.3 996 35 3 Image Chart
2022 8 9 21 18.9 112.0 996 35 3 Image Chart
2022 8 10 00 19.2 111.5 996 35 3 Image Chart
2022 8 10 03 19.5 111.1 996 35 3 Image Chart
2022 8 10 06 20.2 110.6 996 35 3 Image Chart
2022 8 10 09 20.2 109.9 996 35 3 Image Chart
2022 8 10 12 20.8 109.0 996 35 3 Image Chart
2022 8 10 15 20.9 108.6 998 35 3 Image Chart
2022 8 10 18 21.1 107.9 998 35 3 Image Chart
2022 8 10 21 21.5 107.4 998 35 3 Image Chart
2022 8 11 00 22.0 107.0 998 0 2 Image Chart
Japan Meteorological Agency Best Track Data | Correction Date : 2022-08-11
< Typhoon 202206 2022 Season Typhoon 202208 >

Help